Precipitable_Water
0.61 0.58 0.54 0.49 0.46 0.45 0.45 0.44 0.47 0.46 0.47 0.50 0.53 0.57 0.60 0.61 0.62 0.64 0.63 0.60 0.60 0.59
0.59 0.54 0.46 0.43 0.43 0.44 0.45 0.47 0.49 0.51 0.51 0.52 0.54 0.57 0.59 0.60 0.60 0.60 0.58 0.57 0.56 0.54
0.51 0.49 0.48 0.46 0.42 0.43 0.47 0.50 0.51 0.52 0.53 0.52 0.54 0.55 0.56 0.54 0.54 0.52 0.51 0.50 0.47 0.44
0.47 0.45 0.43 0.42 0.42 0.44 0.48 0.50 0.50 0.51 0.51 0.51 0.50 0.46 0.45 0.45 0.45 0.42 0.40 0.39 0.35 0.32
0.48 0.44 0.40 0.39 0.41 0.45 0.46 0.47 0.47 0.51 0.49 0.47 0.45 0.45 0.43 0.41 0.40 0.37 0.34 0.32 0.29 0.26
0.42 0.41 0.41 0.41 0.43 0.44 0.46 0.49 0.51 0.52 0.49 0.47 0.46 0.43 0.40 0.37 0.34 0.31 0.28 0.25 0.23 0.23
0.43 0.40 0.42 0.45 0.48 0.50 0.52 0.50 0.50 0.46 0.43 0.41 0.38 0.35 0.32 0.30 0.27 0.24 0.23 0.23 0.22 0.21
0.43 0.45 0.48 0.47 0.48 0.49 0.47 0.45 0.45 0.41 0.37 0.34 0.32 0.30 0.27 0.25 0.23 0.21 0.20 0.20 0.19 0.19
0.46 0.48 0.45 0.45 0.45 0.45 0.46 0.48 0.44 0.37 0.32 0.30 0.26 0.25 0.24 0.24 0.23 0.21 0.20 0.18 0.18 0.19
0.49 0.47 0.47 0.46 0.43 0.42 0.38 0.33 0.30 0.27 0.25 0.23 0.23 0.24 0.23 0.22 0.20 0.19 0.19 0.19 0.19 0.20
0.41 0.40 0.39 0.37 0.34 0.32 0.29 0.26 0.24 0.23 0.23 0.23 0.22 0.22 0.21 0.20 0.20 0.20 0.20 0.20 0.22 0.25
0.36 0.34 0.33 0.30 0.28 0.25 0.24 0.23 0.23 0.23 0.22 0.21 0.20 0.20 0.20 0.21 0.20 0.19 0.19 0.23 0.28 0.29
0.34 0.32 0.29 0.26 0.24 0.24 0.24 0.23 0.23 0.21 0.21 0.20 0.19 0.20 0.21 0.21 0.20 0.19 0.22 0.27 0.30 0.31
0.34 0.32 0.30 0.26 0.24 0.22 0.21 0.20 0.19 0.19 0.20 0.20 0.20 0.20 0.20 0.20 0.21 0.22 0.25 0.28 0.30 0.32
Wind_Speed
46 48 50 51 51 51 50 49 48 45 43 41 40 39 39 39 40 41 40 40 40 40
49 50 51 52 51 50 48 46 44 43 41 40 39 38 38 38 37 37 38 39 40 41
51 52 53 54 52 49 47 45 43 42 41 40 39 38 38 38 36 36 37 37 38 39
52 54 55 54 51 48 44 43 42 42 41 41 39 36 35 34 35 37 37 39 40 42
55 56 55 52 48 45 43 42 41 40 39 37 35 34 33 33 34 35 37 38 39 41
56 56 53 49 46 44 43 42 40 39 37 35 34 32 33 33 34 36 37 38 39 39
56 53 48 46 44 43 41 40 37 35 33 32 31 32 33 34 36 36 36 37 38 39
52 50 47 45 42 40 37 34 33 32 31 32 33 34 35 35 35 36 37 38 39 40
50 46 43 40 38 35 33 33 32 32 32 33 33 34 34 35 35 37 38 39 39 39
46 43 40 37 35 34 33 32 32 33 33 33 32 33 34 36 37 38 37 37 37 37
40 38 36 35 34 34 33 33 32 32 32 32 33 35 36 37 36 36 35 35 35 34
37 35 34 35 34 33 32 31 31 32 33 34 35 36 36 36 34 34 33 32 31 29
34 34 35 34 33 32 32 32 33 34 35 36 36 36 35 34 33 31 29 28 26 24
35 34 34 33 33 33 33 34 36 36 36 35 35 34 34 33 30 28 26 24 21 20
Wind_Direction
309 309 308 308 307 306 304 304 303 303 300 297 293 289 285 282 280 277 275 276 274 272
309 309 309 309 307 305 303 303 302 301 300 297 294 291 287 283 280 278 277 275 274 274
309 309 309 309 307 304 301 300 299 299 298 297 294 292 289 283 280 279 278 277 276 275
311 311 310 308 306 304 301 300 299 299 298 297 294 292 289 285 282 281 280 279 279 278
311 311 310 308 307 304 303 301 300 300 299 298 294 293 290 288 287 285 284 283 282 282
313 312 310 308 307 305 303 302 301 299 298 296 294 292 291 290 289 288 287 286 285 285
314 314 312 309 308 306 304 303 302 301 299 297 295 294 294 293 292 291 290 289 287 287
313 313 312 310 309 307 306 304 303 302 301 299 298 297 296 295 294 293 292 291 290 289
313 313 313 311 310 308 306 305 302 301 301 301 300 299 299 298 297 296 295 294 293 292
313 312 312 312 311 310 308 307 305 304 303 302 302 301 301 300 299 298 297 296 295 294
314 313 314 313 313 311 309 308 307 306 305 304 304 304 303 302 301 300 299 297 296 296
316 316 316 315 314 312 311 310 309 308 307 306 306 305 305 304 303 302 300 299 298 297
317 317 317 316 314 313 312 310 310 309 308 307 306 306 306 305 304 302 301 301 299 297
317 317 317 316 315 314 313 312 311 310 309 308 308 306 306 306 304 302 301 300 300 300